Radiation Dose measured at Intake/Vertical shaft monitor
Date,Time,Intake(cps),Vertical shaft(cps),Rain
2024/04/22,00:00,5.9,4.4,No
2024/04/22,00:10,6.0,4.5,No
2024/04/22,00:20,6.0,4.4,No
2024/04/22,00:30,5.9,4.4,No
2024/04/22,00:40,5.9,4.4,No
2024/04/22,00:50,6.0,4.4,No
2024/04/22,01:00,6.0,4.5,No
2024/04/22,01:10,5.7,4.4,No
2024/04/22,01:20,5.9,4.5,No
2024/04/22,01:30,5.8,4.4,No
2024/04/22,01:40,5.8,4.3,No
2024/04/22,01:50,5.8,4.3,No
2024/04/22,02:00,5.8,4.3,No
2024/04/22,02:10,5.8,4.4,No
2024/04/22,02:20,5.8,4.4,No
2024/04/22,02:30,5.8,4.6,No
2024/04/22,02:40,6.0,4.4,No
2024/04/22,02:50,5.6,4.4,No
2024/04/22,03:00,5.8,4.4,No
2024/04/22,03:10,5.9,4.4,No
2024/04/22,03:20,5.9,4.4,No
2024/04/22,03:30,5.8,4.3,No
2024/04/22,03:40,5.9,4.4,No
2024/04/22,03:50,5.9,4.5,No
2024/04/22,04:00,5.9,4.4,No
2024/04/22,04:10,5.8,4.4,No
2024/04/22,04:20,5.8,4.4,No
2024/04/22,04:30,5.8,4.4,No
2024/04/22,04:40,5.9,4.4,No
2024/04/22,04:50,6.0,4.3,No
2024/04/22,05:00,5.9,4.4,No
2024/04/22,05:10,5.9,4.3,No
2024/04/22,05:20,5.9,4.4,No
2024/04/22,05:30,5.7,4.4,No
2024/04/22,05:40,5.7,4.4,No
2024/04/22,05:50,5.9,4.5,No
2024/04/22,06:00,5.8,4.4,No
2024/04/22,06:10,6.0,4.3,No
2024/04/22,06:20,6.0,4.4,No
2024/04/22,06:30,6.1,4.4,No
2024/04/22,06:40,6.0,4.3,No
2024/04/22,06:50,5.9,4.5,No
2024/04/22,07:00,5.8,4.3,No
2024/04/22,07:10,5.8,4.4,No
2024/04/22,07:20,5.7,4.4,No
2024/04/22,07:30,5.9,4.4,No
2024/04/22,07:40,6.0,4.4,No
2024/04/22,07:50,5.8,4.4,No
2024/04/22,08:00,5.9,4.3,No
2024/04/22,08:10,5.9,4.4,No
2024/04/22,08:20,5.8,4.6,No
2024/04/22,08:30,5.9,4.4,No
2024/04/22,08:40,6.0,4.5,No
2024/04/22,08:50,5.8,4.4,No
2024/04/22,09:00,6.1,4.3,No
2024/04/22,09:10,6.2,4.4,No
2024/04/22,09:20,5.9,4.5,No
2024/04/22,09:30,6.0,4.5,No
2024/04/22,09:40,5.9,4.5,No
2024/04/22,09:50,6.1,4.6,No
2024/04/22,10:00,6.1,4.5,No
2024/04/22,10:10,6.1,4.5,No
2024/04/22,10:20,6.1,4.7,No
2024/04/22,10:30,5.9,4.4,No
2024/04/22,10:40,6.1,4.5,No
2024/04/22,10:50,6.1,4.5,No
2024/04/22,11:00,6.1,4.5,No
2024/04/22,11:10,6.2,4.4,No
2024/04/22,11:20,5.9,4.6,No
2024/04/22,11:30,6.0,4.5,No
2024/04/22,11:40,6.0,4.5,No
2024/04/22,11:50,6.1,4.6,No
2024/04/22,12:00,6.1,4.6,No
2024/04/22,12:10,6.0,4.4,No
2024/04/22,12:20,6.0,4.5,No
2024/04/22,12:30,5.9,4.5,No
2024/04/22,12:40,6.0,4.4,No
2024/04/22,12:50,6.1,4.4,No
2024/04/22,13:00,6.0,4.6,No
2024/04/22,13:10,5.9,4.4,No
2024/04/22,13:20,6.0,4.6,No
2024/04/22,13:30,5.9,4.4,No
2024/04/22,13:40,6.0,4.3,No
2024/04/22,13:50,5.8,4.4,No
2024/04/22,14:00,5.9,4.3,No
2024/04/22,14:10,5.9,4.4,No
2024/04/22,14:20,5.9,4.4,No
2024/04/22,14:30,6.0,4.5,No
2024/04/22,14:40,5.8,4.3,No
2024/04/22,14:50,5.9,4.4,No
2024/04/22,15:00,6.0,4.4,No
2024/04/22,15:10,5.8,4.4,No
2024/04/22,15:20,5.9,4.3,No
2024/04/22,15:30,6.0,4.6,No
2024/04/22,15:40,5.9,4.6,No
2024/04/22,15:50,6.0,4.4,No
2024/04/22,16:00,5.9,4.4,No
2024/04/22,16:10,5.7,4.4,No
2024/04/22,16:20,5.7,4.5,No
2024/04/22,16:30,5.9,4.5,No
2024/04/22,16:40,5.8,4.5,No
2024/04/22,16:50,6.1,4.4,No
2024/04/22,17:00,5.9,4.5,No
2024/04/22,17:10,5.9,4.4,No
2024/04/22,17:20,5.9,4.4,No
2024/04/22,17:30,5.9,4.3,No
2024/04/22,17:40,5.8,4.4,No
2024/04/22,17:50,5.9,4.5,No
2024/04/22,18:00,6.0,4.3,No
2024/04/22,18:10,5.9,4.3,No
2024/04/22,18:20,5.8,4.4,No
2024/04/22,18:30,6.0,4.4,No
2024/04/22,18:40,5.8,4.4,No
2024/04/22,18:50,5.9,4.3,No
2024/04/22,19:00,6.0,4.4,No
2024/04/22,19:10,5.9,4.5,No
2024/04/22,19:20,5.9,4.3,No
2024/04/22,19:30,5.9,4.4,No
2024/04/22,19:40,5.7,4.6,No
2024/04/22,19:50,5.8,4.4,No
2024/04/22,20:00,5.9,4.4,No
2024/04/22,20:10,6.0,4.4,No
2024/04/22,20:20,5.9,4.4,No
2024/04/22,20:30,6.0,4.4,No
2024/04/22,20:40,6.0,4.3,Yes
2024/04/22,20:50,5.9,4.2,Yes
2024/04/22,21:00,5.9,4.4,Yes
2024/04/22,21:10,5.9,4.3,Yes
2024/04/22,21:20,6.0,4.4,Yes
2024/04/22,21:30,5.8,4.3,No
2024/04/22,21:40,5.9,4.3,Yes
2024/04/22,21:50,5.9,4.4,Yes
2024/04/22,22:00,6.0,4.4,Yes
2024/04/22,22:10,6.0,4.4,Yes
2024/04/22,22:20,5.9,4.4,Yes
2024/04/22,22:30,6.1,4.3,Yes
2024/04/22,22:40,6.1,4.4,Yes
2024/04/22,22:50,6.4,4.5,Yes
2024/04/22,23:00,6.5,4.3,Yes
2024/04/22,23:10,6.4,4.6,Yes
2024/04/22,23:20,6.4,4.6,Yes
2024/04/22,23:30,6.5,4.7,Yes
2024/04/22,23:40,6.6,4.7,Yes
2024/04/22,23:50,6.9,4.9,Yes
